Theta_e
349 348 344 338 337 336 334 335 335 336 335 334 332 329 324 325 331 335 337 337 337 333 330 330 331 335 336 334 335 336 333 330 329 328 329 330 329 327 327 329 331 331 330 327 330 332 334 332 325 322 320 318 317 316 313 314 315 316 318 318 318 317 317 316 317 315 314 314 314 313 312 311 310 311 311 312 313 315 320 326 321 310 307 305 304
348 347 343 338 338 337 335 335 335 336 336 334 332 330 325 324 331 335 336 337 335 331 331 332 334 337 338 337 337 337 333 330 329 328 329 330 329 329 330 332 333 333 332 329 326 327 328 326 323 320 318 317 316 316 313 314 314 315 316 316 316 316 316 315 314 313 311 309 309 309 309 309 309 310 311 312 312 314 316 317 316 310 307 305 304
347 347 342 338 339 337 336 335 335 336 335 335 333 331 326 325 331 335 336 336 333 331 332 334 336 338 337 337 336 335 333 331 331 329 329 329 329 328 327 328 330 329 330 329 323 321 323 323 323 320 317 317 316 315 314 314 314 314 314 314 314 314 315 315 315 314 313 311 309 310 311 310 309 310 310 311 311 312 313 312 310 308 307 307 305
347 347 342 338 339 338 337 336 335 336 335 334 333 332 328 326 330 334 335 335 333 332 334 335 337 337 336 335 334 333 331 331 331 329 329 329 330 328 326 324 322 323 326 326 320 317 319 320 322 321 317 317 316 315 314 313 314 313 314 314 313 314 314 314 315 314 314 313 317 323 323 317 311 309 310 311 311 311 312 312 310 308 307 307 307
347 346 343 339 339 339 338 337 336 336 335 334 334 333 330 328 329 332 335 334 334 334 334 334 335 334 333 331 329 329 329 330 331 331 331 331 331 330 327 324 321 321 322 322 319 316 317 317 320 322 319 317 317 315 314 313 313 313 313 313 313 313 314 314 314 315 315 315 325 333 329 320 313 309 310 310 310 312 311 313 311 309 308 307 307
347 346 342 339 338 339 338 338 337 336 335 334 334 333 332 331 330 330 332 334 334 333 333 332 330 328 327 325 323 324 326 328 330 331 331 330 330 328 327 325 321 321 320 320 319 317 317 316 319 322 320 318 316 315 314 313 313 314 314 313 314 313 314 314 314 316 317 321 328 333 331 326 320 312 308 310 309 310 311 312 312 310 309 308 307
346 345 342 338 337 339 338 338 337 336 335 333 334 333 333 332 331 330 329 329 329 328 327 324 322 321 320 318 318 319 320 321 322 324 324 324 324 322 324 326 321 320 321 319 319 318 318 317 317 320 321 318 315 315 314 313 313 313 313 314 313 313 313 313 314 314 318 329 333 333 334 330 325 316 307 309 309 310 310 311 312 311 309 308 308
346 345 343 340 336 337 338 338 337 335 334 333 334 334 333 332 332 331 327 324 321 319 318 317 316 316 317 318 318 317 318 319 320 320 321 322 322 321 324 324 320 322 322 319 319 317 318 317 316 318 320 318 315 315 314 314 314 313 314 314 313 313 313 313 314 314 320 330 333 334 334 331 327 320 308 308 309 309 310 311 312 312 310 309 309
346 344 343 341 335 335 338 337 337 335 333 333 334 334 333 333 333 332 330 325 319 316 316 316 317 319 323 325 326 326 326 327 328 326 324 323 324 324 325 324 325 328 327 324 321 318 317 316 317 316 318 319 316 314 314 314 313 313 314 313 314 313 313 314 312 316 325 330 332 334 334 334 329 318 309 308 308 309 309 310 311 312 311 310 310
345 345 343 342 336 333 337 337 336 335 333 333 333 334 334 334 334 333 332 329 323 321 320 320 321 325 329 331 332 332 332 332 332 332 330 328 328 328 326 326 329 331 330 329 328 323 319 316 317 317 317 318 316 314 314 314 314 314 314 314 314 314 314 313 314 321 330 331 328 326 327 332 329 316 309 309 308 309 309 309 310 312 312 310 310
345 345 343 342 337 333 336 337 336 334 332 333 334 334 335 335 335 333 332 331 329 327 325 323 324 326 331 333 333 333 333 332 333 334 334 333 332 332 329 327 329 331 331 330 331 329 324 318 319 321 318 318 316 314 314 314 314 315 314 314 314 315 316 313 320 328 331 331 322 319 323 327 324 313 310 309 308 309 308 309 309 311 312 311 310
345 344 343 343 338 333 335 337 335 334 333 332 334 334 335 336 336 334 333 332 331 330 328 326 326 327 331 332 332 333 334 334 334 335 335 335 333 333 331 329 330 331 328 327 326 324 321 320 324 326 320 317 316 314 314 315 315 316 316 316 315 316 317 314 324 330 331 328 321 324 331 328 320 313 312 310 309 308 308 309 309 310 311 311 310
345 345 343 342 338 333 335 337 335 334 333 333 333 335 335 336 336 335 333 331 332 332 331 329 329 331 331 331 332 334 334 335 336 336 335 334 333 332 331 329 330 330 326 324 322 318 317 319 325 326 320 317 316 314 315 315 316 318 318 319 317 316 318 318 327 331 329 323 319 324 328 325 317 312 315 313 310 308 308 308 308 309 309 311 311
345 344 343 342 337 333 336 337 336 334 333 333 333 334 335 336 336 335 333 331 330 331 332 332 332 333 331 330 332 333 334 335 335 336 335 333 331 330 329 329 330 330 327 323 322 320 318 318 320 321 320 320 318 316 316 317 317 318 320 322 321 321 321 322 329 331 327 321 320 325 323 317 314 313 315 315 312 309 308 309 308 309 309 310 311
344 343 342 341 336 334 337 337 335 334 333 333 333 335 336 336 336 335 332 331 330 330 332 333 334 333 330 331 333 334 334 335 335 334 334 331 329 328 328 330 330 330 327 323 322 321 321 318 318 318 319 320 319 318 318 319 319 319 320 322 325 325 324 329 333 332 328 324 322 328 325 314 312 313 314 315 314 310 308 308 308 308 308 309 310
344 342 341 340 337 336 338 336 335 333 333 333 334 336 336 337 336 334 332 330 330 331 333 334 334 332 331 333 335 335 334 334 334 333 331 329 329 329 330 332 333 330 325 321 320 320 321 320 319 318 318 318 318 318 320 322 322 322 321 322 327 327 326 332 336 333 331 329 325 329 326 314 312 313 312 314 314 312 309 308 308 308 308 308 309
343 342 342 340 339 339 338 336 334 332 333 334 335 336 337 337 336 334 332 330 329 330 332 334 334 332 332 334 334 334 334 333 332 330 328 327 328 330 332 333 333 328 322 319 318 317 318 319 320 320 319 318 318 317 319 322 324 326 326 326 327 327 327 330 335 335 332 330 328 331 329 317 313 313 312 313 313 313 311 308 308 307 308 308 307
343 342 341 340 340 340 338 336 334 333 333 335 336 336 336 336 335 333 331 328 328 329 332 334 334 333 334 335 334 333 332 331 329 326 326 325 326 327 329 331 329 325 322 320 319 318 316 317 318 319 319 318 319 321 322 323 325 327 327 328 328 327 326 328 335 335 329 327 330 333 329 318 312 313 312 313 313 313 312 310 309 307 308 308 307
342 342 341 340 340 340 338 338 336 334 335 336 337 337 336 335 334 331 328 327 327 330 333 334 335 335 335 334 332 330 329 329 327 326 326 326 325 325 326 327 325 323 323 322 321 320 318 317 317 318 319 318 320 323 326 325 325 327 328 328 329 329 326 329 334 334 330 330 333 332 325 317 314 313 312 312 313 312 313 311 309 309 308 307 307
341 340 338 337 338 339 338 337 336 335 336 336 337 336 335 334 331 329 327 327 329 332 333 334 335 334 333 330 329 329 329 329 328 328 328 328 327 327 325 325 324 323 324 323 323 322 321 320 318 318 317 318 319 322 326 327 326 325 327 328 329 329 327 331 334 333 332 330 332 331 322 317 316 313 313 313 312 312 313 312 310 309 308 307 307
340 338 337 336 337 339 339 337 337 336 335 336 336 335 334 332 329 328 328 329 331 333 333 333 333 331 329 328 329 329 329 330 330 330 330 329 328 328 326 325 324 324 324 324 324 323 322 321 320 318 317 317 317 319 324 328 328 326 327 328 328 329 328 329 331 333 333 330 331 329 321 318 316 314 314 313 313 312 312 313 311 310 309 308 307
338 337 337 338 339 341 340 337 336 336 335 335 335 334 332 331 329 329 330 330 331 331 332 332 331 329 329 329 329 329 330 330 330 331 332 331 329 329 328 326 326 325 324 324 323 323 322 321 320 319 317 316 316 322 325 327 329 328 327 328 328 330 330 327 329 332 333 332 332 328 323 321 316 314 314 313 313 312 312 312 312 311 309 309 308
338 337 338 339 340 341 339 337 336 336 336 335 334 335 332 331 331 331 331 330 330 331 331 331 330 330 330 329 328 328 329 330 330 332 333 330 329 329 329 328 328 326 325 324 324 323 322 322 321 320 318 317 322 327 329 328 329 329 328 329 330 331 330 328 329 332 332 331 330 326 325 322 316 314 314 313 312 312 313 314 314 312 310 308 308
337 336 338 337 337 339 338 337 335 333 334 334 334 335 333 332 332 331 332 330 330 331 331 331 331 330 329 328 328 329 329 331 330 331 332 329 327 329 329 329 329 328 326 326 326 324 323 323 322 322 321 324 328 329 329 330 330 331 331 331 332 330 329 329 330 332 332 330 328 326 326 324 318 315 314 314 312 312 315 316 315 313 310 309 308
338 336 337 336 336 338 337 333 332 333 335 335 334 333 333 332 331 331 332 331 331 331 331 330 330 329 329 330 330 330 330 333 332 331 332 329 327 329 329 329 329 328 326 329 330 326 327 328 325 325 326 329 330 329 328 329 330 331 331 332 331 330 330 332 332 332 332 330 327 326 326 324 319 315 314 315 312 313 317 316 315 313 311 309 308
339 338 336 336 337 338 334 329 332 334 335 335 333 332 332 331 331 332 333 333 331 329 329 329 330 330 331 331 331 330 331 334 333 332 333 331 329 329 329 329 331 330 328 332 332 326 328 329 328 328 327 329 329 328 326 326 328 330 330 331 332 332 332 333 332 332 332 330 327 327 326 323 319 315 315 317 314 314 319 316 313 313 311 310 308
338 339 337 338 338 337 333 330 334 334 332 331 331 333 333 332 332 333 333 333 332 328 328 329 329 330 330 331 330 331 332 333 334 333 332 332 331 329 329 330 333 332 330 333 331 325 328 328 328 328 326 327 329 328 327 325 325 328 329 329 331 333 333 333 332 332 333 330 327 327 327 324 318 315 314 318 317 314 320 320 313 312 311 311 309
338 339 338 338 336 335 333 332 334 333 332 330 330 332 333 334 333 333 333 332 330 329 329 329 329 329 329 330 330 331 333 333 333 333 331 331 330 329 330 330 332 333 330 332 331 326 327 327 327 328 326 326 328 329 329 328 325 325 328 328 330 333 334 333 332 332 332 331 328 327 328 325 319 315 313 317 320 316 320 322 315 312 310 311 310
338 338 336 336 334 332 331 331 332 332 332 330 329 332 333 334 333 332 332 330 330 330 329 329 330 329 329 329 329 331 333 334 333 332 330 330 330 329 330 328 329 331 329 330 331 327 326 327 327 327 327 327 328 328 328 329 327 325 327 329 329 331 333 334 333 332 333 331 330 328 329 328 320 317 314 314 319 319 322 324 319 315 310 311 311
335 335 335 335 333 331 330 329 329 329 329 329 331 334 333 333 332 331 330 329 329 330 329 329 329 329 331 330 330 331 332 334 333 332 331 331 331 330 330 329 328 329 328 330 330 328 326 326 326 327 329 329 329 326 326 329 328 327 327 328 329 330 331 333 333 332 332 332 331 329 328 329 323 319 316 313 316 319 324 326 323 317 312 310 309
332 333 334 333 332 332 330 328 328 328 328 330 332 332 331 331 331 331 331 330 330 329 329 330 329 331 333 332 332 332 332 333 333 333 333 332 332 332 331 329 329 329 328 330 329 327 327 326 326 328 329 330 329 326 326 328 329 328 327 327 328 329 330 331 331 331 332 332 333 330 328 328 324 322 318 314 313 315 320 325 324 319 314 310 307
329 330 333 331 331 330 329 327 327 328 328 330 331 330 330 331 331 332 333 332 331 331 330 331 332 333 334 333 333 334 333 333 332 333 332 332 332 333 332 330 331 330 329 330 330 327 326 326 325 328 329 330 330 328 327 328 329 329 327 327 327 328 329 329 330 330 331 330 331 331 329 327 325 324 321 317 315 313 315 320 321 320 318 313 309
327 328 331 331 331 330 329 329 328 329 329 330 331 331 331 332 333 334 335 334 333 333 333 333 333 334 334 334 334 334 334 332 331 331 330 330 332 334 334 332 332 331 330 329 329 328 327 328 327 328 330 331 331 329 328 327 327 328 327 327 327 328 328 328 329 330 329 327 327 330 330 329 327 326 326 323 321 318 315 315 317 318 318 315 313
328 327 331 333 331 330 330 330 329 329 329 330 331 331 332 334 335 336 336 335 334 334 334 334 333 333 333 333 332 333 333 332 330 330 330 330 331 333 333 332 331 331 331 328 328 331 330 331 331 330 331 331 331 331 328 327 328 328 328 327 327 328 328 329 329 330 329 326 326 330 331 331 330 327 327 327 326 324 320 317 317 317 316 315 315
328 327 332 334 332 330 331 332 330 329 329 331 331 333 335 335 336 336 335 334 333 332 331 331 331 331 331 331 331 330 332 331 330 330 330 332 333 333 333 331 331 330 330 329 329 331 331 331 331 332 332 331 332 332 330 330 330 330 329 328 328 329 329 329 329 330 329 327 327 329 331 332 332 331 330 329 327 327 325 321 319 318 318 317 317
328 327 330 333 331 331 333 332 330 330 332 334 334 336 336 335 335 334 333 332 330 330 329 329 329 329 328 329 329 328 330 331 330 329 329 331 332 332 331 330 331 330 329 330 329 330 331 330 330 332 333 332 333 332 331 331 330 331 330 330 329 329 330 330 329 330 329 329 330 330 330 330 331 331 331 330 328 328 327 325 323 322 323 323 322
330 329 329 332 332 332 333 332 331 333 335 336 336 336 335 334 333 332 331 328 326 327 326 325 326 326 326 327 328 328 329 330 330 329 329 330 332 332 331 330 331 330 329 330 330 330 330 330 331 332 332 332 332 331 332 331 331 331 330 330 329 328 329 329 328 328 329 330 330 330 329 330 331 330 330 331 330 328 327 327 326 325 325 326 326
333 333 332 333 334 334 334 333 333 336 336 337 337 335 334 332 330 328 326 324 323 323 322 322 323 324 325 326 327 328 328 329 329 329 329 330 331 332 331 330 331 331 331 330 330 331 330 331 332 332 331 331 331 331 332 332 331 331 330 328 328 327 327 328 327 327 329 330 330 330 329 329 329 329 330 330 330 329 328 328 327 327 327 327 327
334 335 335 335 336 336 336 334 335 337 337 338 336 334 332 329 327 324 323 323 323 321 321 322 322 323 325 325 325 327 327 328 328 328 329 331 331 330 330 330 330 330 331 331 331 331 331 331 332 332 330 330 330 332 332 332 331 331 329 327 327 327 326 326 327 328 329 330 328 329 330 329 327 328 329 328 328 329 327 326 326 327 327 328 328
334 334 335 336 335 333 333 335 336 337 337 336 333 330 328 324 324 325 324 326 325 321 321 322 322 322 322 321 322 323 324 325 327 327 327 328 329 329 329 329 329 329 330 330 331 331 331 331 331 332 329 328 329 331 331 331 330 330 328 327 327 326 326 326 326 327 327 327 327 327 328 329 329 328 328 327 327 328 328 327 327 326 325 326 328
334 333 335 337 334 329 329 334 337 337 335 333 330 326 324 324 326 327 327 327 324 319 319 321 321 320 319 319 320 319 320 321 321 323 324 325 326 327 328 328 329 329 329 329 330 330 329 330 331 331 329 329 330 329 329 331 331 330 329 328 327 326 326 326 326 327 327 326 327 327 326 327 328 329 328 327 327 327 327 327 326 326 326 326 328
334 334 337 337 334 331 332 334 336 335 332 328 324 322 325 327 328 328 328 328 325 323 323 320 318 315 313 316 318 316 316 317 316 317 321 323 324 325 326 326 326 327 327 328 328 329 328 329 330 331 330 330 331 329 329 330 330 330 329 330 329 328 327 325 327 329 328 327 327 327 325 325 326 327 327 327 327 326 326 325 323 324 325 325 326
335 335 337 336 333 334 335 337 335 331 327 323 323 324 326 326 326 325 326 327 325 324 321 314 313 311 308 310 314 315 316 317 316 316 318 319 321 323 323 323 323 324 326 327 327 328 329 329 330 331 330 330 330 329 329 329 329 330 330 329 329 329 327 325 327 329 328 327 326 326 325 324 324 325 326 326 325 325 324 324 324 325 325 325 326
335 336 337 335 334 333 333 334 331 325 322 322 324 326 325 323 321 318 319 321 316 312 311 310 312 313 308 308 311 314 318 318 317 318 317 315 317 319 320 321 322 322 324 325 326 327 327 328 329 330 330 330 330 329 328 328 328 330 330 328 328 328 327 326 326 327 327 326 324 325 324 323 324 324 324 326 326 325 323 323 324 325 325 326 327
334 335 337 336 333 329 325 325 323 322 323 325 325 326 323 320 317 315 313 313 307 308 315 316 317 316 312 308 307 311 317 318 318 319 317 316 318 318 318 318 319 320 321 323 325 325 326 327 327 328 329 330 330 330 328 327 327 328 328 328 327 327 326 326 327 326 327 327 325 325 325 325 326 325 324 324 326 326 325 325 326 326 326 325 326
334 335 336 336 333 328 323 319 321 324 325 326 326 325 324 318 315 315 311 308 310 316 321 319 319 318 313 309 307 309 314 317 319 319 318 317 318 318 318 318 318 317 318 321 322 323 324 326 326 326 327 328 329 330 329 327 327 327 327 327 327 327 326 326 327 327 327 326 326 326 326 326 327 327 326 325 326 326 326 327 327 326 326 326 326
334 335 336 337 335 330 326 321 323 326 324 323 323 323 323 317 314 314 313 315 319 320 317 312 313 312 308 309 308 307 312 317 318 318 317 316 317 318 318 318 318 318 318 319 321 322 323 324 324 325 326 327 328 329 330 329 327 327 327 328 327 326 326 326 326 327 326 325 325 325 325 325 325 326 326 326 326 326 325 326 327 326 325 326 326
334 335 335 337 334 329 329 326 323 324 324 322 320 322 321 317 316 317 319 322 318 311 308 307 307 307 306 311 313 310 312 317 318 317 317 316 316 318 319 319 320 320 320 320 320 320 321 322 323 324 325 327 328 329 330 329 328 328 327 327 328 327 327 326 325 325 326 326 324 323 324 324 324 324 324 323 323 323 323 324 326 326 323 323 324
333 334 335 337 333 328 329 329 325 324 326 324 321 322 322 317 317 318 318 317 311 306 308 307 306 307 306 309 313 312 312 314 315 315 316 316 316 319 319 319 319 320 322 321 320 320 321 322 322 324 326 327 327 328 329 328 328 328 327 326 327 328 327 327 326 325 325 325 324 323 323 323 323 322 322 322 322 323 322 323 325 324 324 323 323
333 333 334 335 333 329 328 330 328 325 327 327 323 323 322 318 316 315 312 309 308 307 308 306 306 308 307 306 309 314 316 314 312 312 313 313 314 316 317 316 315 317 319 319 318 320 322 321 319 321 325 326 326 326 327 327 328 328 327 327 327 328 327 328 327 327 326 326 325 324 323 323 322 320 320 320 320 322 322 321 322 322 322 322 322
333 333 333 332 331 330 329 331 331 329 330 331 328 324 322 318 316 315 311 308 308 308 307 306 307 309 309 308 309 313 316 315 311 308 307 307 308 310 310 310 308 309 313 316 317 318 320 319 318 318 322 324 325 325 326 327 328 328 328 328 327 327 328 327 327 327 327 327 325 323 322 322 321 319 318 317 317 318 318 317 317 317 319 320 322
Wind_Speed
17 19 23 25 22 21 19 18 16 15 14 12 12 12 13 15 18 20 21 21 20 20 20 20 18 16 16 16 16 15 14 14 15 15 16 15 15 15 15 14 12 11 11 12 13 12 12 11 13 14 13 13 13 12 11 10 12 15 16 16 16 16 16 16 16 15 14 14 15 15 15 15 14 15 15 15 14 14 16 14 12 14 14 13 15
21 21 23 25 22 21 19 18 16 15 14 13 12 12 13 15 18 20 21 21 21 21 21 19 17 15 16 16 15 14 12 13 15 15 15 15 14 13 14 13 12 10 10 10 12 12 10 10 12 14 13 12 13 12 12 12 15 17 16 16 16 15 15 15 15 14 14 15 15 15 14 14 14 15 15 15 14 14 15 15 14 14 15 15 15
22 21 23 25 22 21 19 18 16 15 14 13 13 13 14 16 19 20 21 21 22 22 20 18 16 16 16 15 13 12 11 13 14 14 13 13 13 12 12 12 11 10 9 9 11 12 10 9 11 12 12 12 12 12 12 13 15 16 15 15 15 15 14 14 14 14 14 14 15 15 14 14 14 14 14 14 13 14 15 16 17 17 17 17 15
22 21 23 24 22 21 19 18 17 16 15 14 13 14 15 17 19 20 21 22 22 22 19 17 16 16 14 13 12 11 11 12 13 12 12 12 12 11 10 10 10 10 9 8 10 12 11 9 10 12 12 12 11 12 12 14 15 15 15 15 15 14 14 14 14 14 14 15 18 16 11 12 13 14 14 13 13 14 14 16 17 18 19 18 17
21 21 23 24 23 22 20 18 17 16 15 14 14 14 16 18 19 20 21 21 21 20 18 16 15 15 13 12 11 11 11 12 12 11 11 11 10 10 9 9 8 8 8 8 9 11 11 10 10 11 12 12 11 12 12 13 13 14 14 15 14 14 14 14 14 14 15 17 19 13 8 10 12 14 13 13 13 13 14 15 17 18 19 19 18
21 22 24 25 24 22 20 19 17 16 16 15 14 15 16 17 19 19 20 19 19 18 17 15 15 15 14 13 12 12 11 11 11 11 11 10 9 9 8 8 8 8 8 8 9 11 12 11 11 11 12 12 11 11 12 12 12 12 13 13 13 13 13 13 13 13 15 17 16 11 8 9 9 12 12 12 13 13 13 15 16 17 18 19 17
21 21 24 24 24 22 20 19 18 17 16 16 15 15 16 17 18 18 18 18 18 17 16 15 15 15 14 14 13 12 11 11 11 11 11 10 9 8 9 9 9 8 8 8 9 10 11 11 11 11 12 13 12 12 12 12 11 11 12 12 12 12 12 12 12 12 16 14 11 10 9 7 7 10 12 13 12 12 13 14 15 17 18 18 17
20 20 21 22 24 22 21 20 18 18 17 16 16 16 16 16 17 17 17 17 17 16 16 15 15 15 14 14 13 12 11 11 11 11 11 11 10 9 10 10 9 10 9 9 8 9 10 11 11 12 12 13 13 13 13 12 11 11 11 10 11 11 11 11 11 13 16 12 10 10 9 7 7 9 11 12 11 11 13 13 14 16 17 18 18
20 19 19 20 22 23 22 21 19 19 18 17 17 16 16 16 16 16 16 16 16 16 16 16 15 15 14 13 12 12 12 12 11 11 11 11 11 10 10 10 10 10 9 9 9 8 8 9 10 12 13 14 14 14 13 12 11 11 10 9 9 9 10 10 11 14 14 10 11 10 8 8 6 7 11 11 11 11 12 12 13 15 16 17 18
20 19 18 18 21 23 22 21 20 19 19 18 17 16 16 15 15 15 15 16 16 16 15 15 14 14 13 12 13 13 12 12 11 11 11 11 11 10 10 10 10 9 8 7 7 7 7 7 10 11 13 14 14 15 14 13 11 10 9 8 8 8 8 8 10 13 11 8 9 9 10 9 4 5 10 10 11 11 11 12 12 14 15 16 17
20 19 18 18 20 23 22 21 20 20 19 18 18 17 16 14 13 13 14 15 15 14 14 14 14 14 13 13 13 13 13 12 11 11 11 10 11 10 9 10 10 9 7 6 6 5 5 6 9 11 13 15 16 16 16 14 12 10 9 8 6 6 6 7 9 9 8 6 7 10 10 8 4 7 10 10 10 10 10 11 11 13 14 15 16
19 18 17 19 21 22 22 21 20 20 19 19 18 17 15 14 12 12 13 13 13 13 13 13 14 14 14 13 13 12 12 11 10 10 11 10 10 10 9 10 10 9 8 6 5 4 4 7 9 10 13 16 17 17 16 15 13 10 9 8 7 5 5 6 8 6 6 5 7 11 9 6 5 8 9 9 10 9 10 10 11 12 13 14 15
18 18 18 19 20 22 21 20 20 19 19 19 18 17 15 13 12 11 12 12 12 12 13 13 13 13 13 13 12 12 11 11 10 9 9 9 9 9 8 10 10 9 8 7 6 4 5 8 8 8 11 15 17 17 16 15 14 12 10 9 8 6 4 5 7 5 5 5 7 9 7 5 6 8 8 8 10 9 9 9 10 11 11 13 14
19 18 18 19 20 21 21 20 20 19 19 18 18 16 14 12 11 11 11 12 12 12 13 13 13 13 13 13 12 11 10 10 10 9 9 9 9 8 8 9 8 7 7 6 6 6 7 7 7 6 7 11 14 16 16 14 13 12 10 10 8 7 5 4 6 3 4 5 7 7 5 5 6 7 8 8 9 9 9 8 9 10 10 11 12
18 19 18 18 20 21 20 20 20 19 18 18 17 15 13 12 11 11 11 11 12 12 13 13 13 13 13 13 12 11 11 10 9 9 8 8 8 8 8 8 6 5 4 5 5 5 6 6 6 6 7 7 8 12 15 13 12 12 11 10 8 7 6 5 4 2 4 5 7 7 4 4 5 7 8 7 8 8 8 7 8 9 9 10 11
18 19 18 18 20 21 21 20 19 19 18 17 16 14 13 12 11 10 11 11 12 13 14 14 13 14 13 13 12 12 11 10 9 9 8 8 7 8 9 8 6 3 2 3 3 3 5 5 6 6 6 7 7 10 15 13 12 11 10 11 10 6 6 7 3 1 4 4 6 7 2 3 5 6 7 7 7 7 7 7 7 8 9 9 10
18 18 18 19 20 20 21 21 20 19 18 17 15 14 13 12 10 10 10 11 13 13 14 14 14 13 13 12 12 11 10 9 8 8 8 8 8 8 8 7 6 4 3 3 3 2 3 4 4 4 4 6 7 8 13 13 10 10 10 11 10 7 6 7 5 2 3 3 6 6 2 2 4 5 6 6 6 6 6 6 7 7 8 8 9
16 16 18 19 19 19 21 22 21 20 19 17 15 15 13 11 10 10 11 11 12 13 14 14 14 13 13 12 12 11 10 9 9 8 8 8 8 8 8 7 6 4 4 3 3 3 2 2 3 3 3 4 5 6 9 11 10 8 9 11 10 8 7 6 5 3 3 3 6 5 2 1 2 4 4 5 5 6 6 5 6 6 6 7 8
15 15 19 20 18 19 20 21 21 20 19 18 17 15 13 11 10 10 11 11 13 14 15 14 14 13 13 12 11 10 9 9 8 8 7 7 7 7 7 7 6 5 4 4 3 3 3 2 2 2 3 4 5 5 6 8 10 8 8 9 9 8 7 5 5 3 2 3 5 3 1 2 1 3 3 3 4 5 6 5 4 5 6 6 7
15 14 18 18 18 18 20 21 20 20 18 17 17 15 13 12 11 11 12 13 14 14 14 13 13 13 12 11 10 9 9 8 8 7 6 6 6 6 6 6 5 5 5 4 3 3 3 2 2 2 2 3 5 6 6 5 7 9 8 8 8 7 6 6 5 4 2 3 5 2 2 2 1 2 2 2 3 3 5 4 3 4 5 6 6
17 16 17 18 17 17 19 21 19 18 18 17 17 16 15 13 12 13 13 14 14 13 13 12 13 12 11 11 9 8 8 7 7 7 7 7 6 6 6 6 6 6 5 4 3 2 2 2 2 2 2 2 3 5 6 6 6 6 8 8 8 7 5 5 5 5 3 2 4 0 3 2 1 2 1 1 1 2 3 3 3 3 4 5 5
19 19 18 18 17 17 19 20 17 16 18 17 16 16 15 14 14 15 15 15 14 13 12 12 12 12 11 10 9 8 7 6 6 7 8 8 6 5 6 6 6 6 5 5 4 3 2 2 2 1 1 1 1 2 4 6 6 6 6 8 8 7 6 7 5 4 3 4 3 2 3 3 2 1 0 1 1 1 1 2 2 3 4 5 5
21 20 17 18 18 17 17 18 17 15 15 15 14 14 15 15 15 16 16 15 15 13 12 12 12 12 11 10 8 7 7 6 6 7 9 8 5 5 6 7 6 5 5 5 5 4 3 3 2 2 1 1 2 3 3 3 5 6 4 5 6 7 7 8 6 4 3 3 3 1 2 3 3 1 1 1 1 1 0 1 1 2 5 5 5
22 21 18 18 18 16 16 17 18 16 14 13 14 14 16 17 16 16 16 15 15 14 13 13 12 11 10 9 8 8 7 7 7 7 7 7 5 6 7 7 7 7 6 5 5 4 4 3 3 2 2 3 3 4 5 4 4 4 4 5 6 7 8 8 6 5 3 3 2 1 2 2 3 1 1 2 2 2 2 1 1 1 4 6 6
20 19 19 19 18 16 17 18 18 16 14 14 15 14 15 16 16 16 15 16 15 15 14 12 11 10 9 9 8 8 7 7 8 7 5 5 5 6 7 7 7 8 7 6 6 5 4 4 3 3 3 4 4 4 5 5 4 4 5 6 6 7 8 7 7 6 5 5 4 3 2 2 3 2 2 3 2 2 3 3 3 2 3 5 7
18 17 19 18 17 16 18 20 18 17 15 13 14 14 14 15 16 16 15 15 14 14 13 11 10 9 8 8 8 7 7 7 6 5 5 6 5 6 7 6 7 8 8 7 7 7 6 5 4 3 3 4 4 3 4 4 4 4 6 7 6 7 7 7 7 6 5 6 5 4 4 2 3 3 3 3 2 2 4 4 4 3 3 4 7
17 16 18 17 16 16 18 21 18 17 17 14 13 14 14 16 16 15 15 13 12 12 11 10 9 8 7 7 7 7 7 6 5 6 8 7 5 7 8 8 7 8 9 9 8 7 7 7 6 4 4 4 4 3 3 4 5 6 6 7 7 7 7 7 7 6 5 6 6 4 4 3 3 3 3 3 3 2 3 5 5 3 3 4 6
18 17 18 17 17 17 18 20 17 16 17 16 15 13 13 13 12 12 11 11 11 10 10 9 8 8 7 7 7 7 6 5 6 8 9 7 6 7 8 8 8 9 10 9 8 8 8 8 7 5 5 5 5 4 4 4 5 6 6 7 7 7 7 7 7 6 5 6 6 5 5 4 2 3 3 3 3 3 3 5 5 3 3 3 4
22 20 20 18 18 17 18 18 16 16 17 16 14 12 11 11 10 10 9 9 10 9 9 8 8 8 7 7 8 7 6 5 7 9 9 8 8 8 7 8 9 10 11 9 8 9 8 8 8 6 5 5 5 5 5 5 5 5 6 7 7 7 7 7 7 6 6 6 6 5 5 5 3 2 2 2 3 3 4 4 4 2 2 2 2
20 18 18 19 19 17 17 18 17 17 16 16 14 12 11 11 9 9 8 8 8 8 8 7 7 7 7 8 9 9 8 7 8 9 9 8 8 8 7 7 9 10 11 10 9 9 8 8 8 7 6 6 7 6 5 5 5 4 5 6 7 7 7 7 7 7 6 6 6 6 6 5 4 2 2 2 3 4 5 4 4 3 2 2 2
21 21 19 20 21 18 18 19 18 17 16 15 14 13 11 10 8 7 7 7 7 7 7 7 8 7 7 9 9 9 9 8 8 9 9 9 8 8 8 7 8 9 10 10 10 9 8 8 8 8 8 7 7 6 6 6 5 4 5 6 7 7 8 8 8 7 6 5 5 6 6 5 4 3 2 2 2 2 4 5 4 3 2 1 2
22 23 22 23 23 20 20 20 19 17 16 15 13 11 10 9 8 6 6 7 7 7 8 8 9 9 9 9 7 7 8 8 9 9 9 9 8 7 7 7 8 9 10 11 11 10 9 9 9 9 8 7 6 6 7 6 6 5 5 6 6 7 7 8 8 7 7 6 5 6 6 5 4 2 1 0 0 0 2 4 4 3 2 2 2
20 25 25 25 25 23 22 20 20 18 16 14 12 10 9 8 7 6 7 7 8 8 9 9 9 9 8 7 6 5 7 8 8 8 8 8 8 7 7 8 7 8 10 12 12 11 10 10 10 9 8 6 5 6 7 7 7 6 6 6 6 6 6 7 8 8 8 7 8 7 6 6 5 3 2 2 1 1 2 2 2 2 2 2 2
21 28 28 25 26 25 23 21 19 18 16 15 12 10 9 8 7 7 7 7 7 8 7 7 6 5 5 5 6 6 6 7 8 7 7 7 7 7 7 8 8 9 11 13 12 11 11 10 9 8 7 6 4 6 7 7 7 6 6 7 6 6 6 6 7 8 8 8 9 8 6 5 5 5 3 4 3 2 2 3 2 2 2 2 2
24 31 27 24 26 25 23 21 19 17 16 14 12 11 10 8 7 6 6 6 5 5 4 4 4 3 4 5 6 6 6 6 7 6 6 6 6 6 8 8 9 9 10 13 13 11 11 10 9 8 7 6 5 6 6 6 6 5 6 7 6 6 6 6 6 7 8 9 9 9 8 7 6 6 4 3 3 4 3 3 3 3 4 3 2
24 29 26 23 25 24 22 21 19 17 16 15 13 11 10 8 7 6 5 4 3 3 3 3 3 4 5 5 5 5 3 3 4 4 6 6 5 6 8 8 8 9 9 11 11 9 9 10 9 8 7 6 5 5 5 5 6 5 6 6 7 7 5 6 7 6 7 7 6 8 10 9 7 7 6 5 4 3 3 3 4 4 5 5 4
22 25 26 24 23 23 21 21 20 18 17 15 14 11 9 8 7 6 5 3 3 2 2 2 2 3 4 4 3 3 2 3 3 4 5 5 5 5 7 8 8 8 9 9 8 8 8 8 7 6 6 6 6 6 6 6 6 6 6 7 8 9 8 8 9 8 7 6 6 7 9 10 9 9 7 7 7 4 3 2 4 5 5 5 5
20 21 23 22 21 21 20 21 20 18 16 15 14 11 10 9 7 5 4 5 5 3 2 2 1 2 3 2 0 0 0 2 3 4 5 4 4 5 6 7 7 8 8 7 7 7 8 7 6 5 6 7 7 7 7 7 7 6 7 8 8 9 9 9 9 8 6 6 7 7 8 12 12 10 9 10 9 7 4 3 3 4 3 4 4
18 18 20 20 19 19 19 19 20 18 16 15 13 11 10 9 7 6 6 6 6 5 3 3 3 2 2 1 1 1 2 2 2 2 3 3 4 5 6 7 7 7 7 7 7 8 8 7 6 6 7 8 8 8 8 8 8 7 8 9 9 9 9 8 8 7 7 8 9 8 7 10 10 10 9 8 8 6 3 4 4 2 1 2 2
16 17 19 20 17 17 17 17 18 18 16 15 13 12 10 9 7 7 7 6 6 7 6 5 4 3 2 1 2 2 1 2 2 1 1 1 2 3 5 6 6 6 6 6 7 7 7 7 6 7 7 8 9 9 9 8 8 9 9 9 9 9 8 8 8 8 9 10 10 9 8 6 7 9 10 8 7 7 6 5 5 3 5 5 3
17 17 19 18 16 17 18 17 17 16 15 14 14 12 10 9 8 7 8 7 6 7 7 6 5 4 3 2 2 2 2 2 2 2 2 1 1 1 2 3 4 5 5 6 6 7 7 7 6 6 6 6 7 9 10 8 7 8 8 8 8 8 7 8 8 6 8 9 9 9 9 7 7 8 9 9 8 9 9 10 9 5 6 7 6
16 18 19 17 17 19 18 17 16 14 13 15 14 12 10 10 10 9 9 9 7 7 6 5 5 4 4 4 3 3 3 2 2 3 3 2 1 1 1 1 2 3 4 5 5 5 6 6 6 6 6 5 6 7 8 7 7 8 8 7 8 8 7 8 7 5 7 8 6 6 8 8 8 8 9 9 9 9 9 10 10 8 9 9 9
15 18 18 17 17 17 16 14 14 14 15 16 15 13 11 11 11 11 11 10 9 9 8 7 6 5 5 5 5 5 5 4 3 3 2 3 3 2 2 2 2 2 2 3 3 3 4 4 5 5 5 5 6 7 7 7 7 8 9 8 9 8 8 8 7 6 6 6 5 5 5 6 7 8 8 8 8 10 9 8 8 8 9 10 8
16 16 16 16 15 14 14 15 15 17 17 18 17 15 13 13 12 12 12 11 10 10 9 8 8 6 6 6 6 7 6 4 4 4 2 3 3 3 3 3 3 2 2 2 3 3 3 3 4 4 5 5 6 7 7 8 7 7 8 8 8 8 7 7 7 5 4 3 4 6 5 5 7 7 7 7 7 8 9 8 8 8 8 8 6
17 16 15 14 14 13 14 18 19 19 19 19 17 16 15 13 13 12 12 11 11 11 10 9 8 7 6 6 6 7 6 5 5 5 4 3 4 3 3 2 3 3 3 3 3 3 3 3 3 3 4 5 5 6 7 8 8 9 9 6 5 6 4 3 5 4 3 2 3 5 5 5 6 6 6 7 7 6 6 7 7 7 8 8 7
16 17 14 12 15 16 16 19 21 20 20 18 15 15 14 12 11 11 11 12 12 10 9 9 8 7 7 7 7 7 7 6 6 5 4 4 4 4 4 3 2 2 2 2 3 3 2 2 2 2 4 5 5 5 5 7 8 9 10 8 7 6 4 1 4 4 3 3 2 3 3 3 4 3 2 4 5 3 3 4 5 6 6 6 6
14 14 13 12 16 18 17 19 22 22 20 18 16 16 14 11 10 10 11 12 11 11 9 9 9 7 7 8 8 8 8 8 7 6 5 4 5 5 5 4 3 3 2 2 2 2 2 2 2 2 2 4 4 4 4 5 5 6 8 8 9 9 6 2 3 4 3 2 2 2 3 4 5 4 3 3 3 3 2 1 1 3 2 1 3
13 12 12 14 16 16 17 20 23 21 19 18 18 16 14 12 12 11 11 11 11 11 10 9 9 8 9 9 8 7 9 10 8 7 6 5 5 6 5 4 4 4 3 2 2 2 1 1 1 2 2 2 3 3 3 3 3 4 5 6 7 7 7 4 3 3 2 4 5 3 2 3 4 5 5 4 2 2 2 1 1 1 3 2 4
13 12 12 15 16 15 16 20 22 20 19 18 18 17 15 14 13 12 12 12 11 11 11 10 10 10 11 11 10 9 10 11 10 8 7 7 7 6 5 4 3 4 5 3 2 3 2 1 1 1 1 1 2 3 3 3 3 3 4 4 4 4 5 5 4 4 4 6 7 6 5 4 3 1 0 1 1 1 0 1 2 3 2 2 3
12 11 11 12 14 14 14 17 19 20 20 18 17 17 15 14 13 11 11 11 10 11 11 11 11 11 11 12 12 11 11 11 11 9 8 8 8 7 6 5 4 4 4 3 2 3 2 2 2 2 3 2 1 1 3 3 3 3 3 3 3 3 3 4 4 5 5 4 5 7 6 6 7 8 8 7 5 4 3 3 3 4 3 2 3
9 9 10 9 9 11 10 10 14 17 17 17 16 15 14 14 12 10 9 9 10 11 11 12 12 12 12 12 13 13 12 11 11 11 10 10 10 10 9 7 7 6 6 6 5 4 3 3 3 3 3 3 2 2 2 2 2 2 2 2 2 2 2 2 3 4 4 3 5 8 7 7 9 10 11 11 10 8 6 6 5 5 4 2 3
Wind_Direction
170 175 170 170 170 170 168 164 162 156 153 148 149 148 152 155 160 164 163 162 160 157 154 151 147 147 142 140 140 140 141 142 144 144 144 141 142 145 147 148 150 152 153 159 155 151 152 153 149 137 131 127 120 114 106 98 99 102 100 96 95 92 87 86 85 83 82 84 82 82 82 84 87 88 87 83 77 72 73 71 53 44 52 72 84
168 170 168 170 170 170 168 165 162 156 155 151 151 148 148 151 157 162 162 160 158 158 154 151 149 149 146 143 143 143 144 144 146 147 149 149 150 150 150 149 155 164 164 168 173 173 161 158 155 141 137 132 124 116 109 107 105 100 97 96 94 89 85 86 86 85 82 81 81 82 83 84 85 85 85 82 79 74 75 75 66 55 58 74 86
166 168 167 169 169 170 169 166 163 159 157 153 151 146 144 147 154 159 159 158 158 158 155 154 151 150 148 145 144 146 146 146 148 149 153 155 156 156 154 151 158 168 169 175 180 182 172 164 157 144 142 135 126 119 115 114 109 104 102 98 94 89 87 88 90 90 87 86 84 79 78 80 81 82 84 83 80 77 73 70 65 59 60 70 83
163 166 167 168 169 171 169 167 165 161 158 154 151 143 141 143 150 156 157 159 160 160 157 155 152 150 149 147 148 150 147 147 149 150 153 156 159 159 157 154 159 160 157 164 171 178 177 172 163 153 147 138 131 125 121 119 114 110 108 102 98 94 90 90 91 91 90 88 80 71 68 74 78 78 80 83 80 75 71 68 62 58 61 65 73
160 166 166 165 169 172 169 168 167 164 160 155 150 142 139 141 147 153 157 161 161 162 160 158 154 153 150 150 151 149 148 148 151 152 153 155 158 159 161 159 159 159 155 155 162 171 175 174 168 160 153 143 138 132 127 124 120 115 112 107 103 99 94 90 89 91 91 87 83 79 67 65 72 74 74 79 80 77 73 69 63 58 60 63 66
158 166 165 165 169 170 169 169 169 166 161 155 150 144 139 139 144 150 155 160 163 165 164 161 158 156 152 149 146 145 148 148 150 151 150 152 154 156 160 162 165 163 158 158 162 168 171 174 172 166 157 150 145 139 135 130 126 121 116 111 108 103 96 92 89 93 91 82 83 91 77 63 66 72 73 74 77 77 74 71 66 60 60 61 62
157 165 163 167 169 168 171 170 170 167 162 157 152 146 141 140 143 147 153 157 162 164 162 158 153 150 146 142 140 141 144 145 148 148 144 140 137 140 147 153 161 156 152 157 165 171 171 174 175 171 161 155 151 145 142 137 132 128 121 117 112 105 100 95 91 93 91 82 82 89 86 78 71 71 71 72 73 74 75 72 70 65 62 63 64
157 162 160 166 168 167 171 171 170 167 162 159 153 148 143 141 143 146 150 153 156 156 154 151 146 143 140 138 138 139 140 141 144 146 144 136 126 120 126 135 140 138 139 143 152 165 174 177 176 174 165 160 156 150 149 145 140 132 128 123 114 108 103 97 94 91 85 87 93 89 86 78 74 78 73 73 72 73 77 76 75 70 66 64 67
156 158 160 166 168 168 171 173 171 167 163 159 154 150 145 142 143 146 148 150 150 150 150 148 145 141 137 137 136 137 139 139 139 143 145 139 129 117 113 119 129 134 136 137 142 151 167 178 178 177 166 163 161 157 155 152 148 140 136 130 121 115 107 103 100 90 79 83 92 91 94 81 66 74 75 76 75 71 74 77 78 75 71 67 68
156 159 162 167 171 169 170 173 171 167 163 158 156 151 146 143 143 146 148 150 150 151 152 149 146 142 138 138 138 138 140 140 139 139 140 135 128 122 114 115 128 136 141 148 150 145 155 175 181 177 164 164 165 161 160 159 156 148 143 136 130 121 112 108 95 85 79 84 94 101 111 110 100 76 78 78 76 75 74 76 79 78 75 73 71
159 163 162 167 172 170 170 172 169 167 164 161 159 154 150 148 147 148 150 152 153 154 154 152 150 145 141 141 140 140 143 143 144 141 136 133 127 124 121 120 128 134 145 163 168 158 161 173 178 176 165 165 168 167 165 162 162 156 151 145 141 127 119 110 92 82 84 90 92 87 87 94 95 82 83 81 79 80 80 79 80 80 79 77 76
163 163 163 169 173 171 170 171 170 168 166 165 162 159 157 155 154 154 156 157 158 157 157 157 153 149 147 146 145 144 148 146 146 143 133 131 127 125 127 127 133 139 146 159 165 171 175 174 176 175 168 167 171 173 169 167 166 164 162 156 155 143 133 109 89 83 95 100 88 85 85 80 69 73 78 82 86 83 79 79 77 80 82 80 79
162 160 167 170 171 170 168 170 171 170 169 168 164 162 160 159 161 161 162 163 163 164 163 161 156 153 152 150 150 151 154 151 147 142 132 127 124 128 133 134 142 148 151 156 157 156 161 174 182 180 173 170 174 176 173 174 172 171 173 164 162 157 148 109 93 93 100 102 88 93 112 98 62 65 70 77 85 83 78 78 77 78 81 82 82
162 160 170 169 168 167 167 171 172 173 172 169 165 164 164 164 167 166 167 168 168 168 167 164 160 157 156 155 155 157 159 158 152 143 133 126 128 136 136 138 145 151 154 163 166 156 152 168 186 192 186 177 177 177 175 179 178 180 181 169 165 162 156 96 86 103 91 91 89 82 83 72 54 63 68 70 79 83 82 81 81 79 79 80 82
161 163 170 165 162 164 167 171 173 174 173 170 168 167 168 169 168 168 170 171 171 169 169 167 164 160 160 159 157 160 160 160 152 141 139 134 136 138 134 139 142 153 160 165 175 172 161 163 178 191 197 190 180 174 171 179 183 184 188 177 167 170 165 104 77 109 91 84 93 91 81 71 62 65 64 62 72 84 86 84 85 82 80 80 80
164 166 165 158 156 162 167 170 172 174 175 172 169 170 170 170 168 169 171 173 172 168 170 169 168 165 162 161 158 161 161 160 152 144 147 142 139 138 139 142 141 159 162 148 167 186 183 177 183 188 195 197 190 173 166 174 180 175 183 179 168 169 157 127 126 137 95 88 92 98 113 99 84 70 64 61 63 79 91 86 86 86 82 81 81
166 167 159 154 153 160 165 168 172 175 175 171 171 175 171 169 168 170 172 171 170 168 171 172 170 167 163 163 160 161 161 161 155 148 147 139 137 143 148 147 145 155 135 124 136 164 188 193 201 199 199 199 194 181 165 168 175 166 166 170 167 161 151 136 135 142 129 124 97 96 110 96 90 78 69 66 61 71 88 87 87 89 86 83 82
162 166 154 150 152 159 165 169 174 175 173 172 173 175 169 165 169 172 170 167 169 172 173 172 168 167 167 165 161 160 160 158 152 146 142 136 137 144 148 149 151 149 134 133 134 136 152 171 199 214 225 220 202 193 171 164 169 170 162 164 165 161 164 143 127 160 166 114 92 104 123 72 80 88 75 72 67 64 77 88 89 88 89 85 83
161 164 148 147 157 162 168 171 176 177 175 174 172 169 165 166 173 173 169 168 172 175 171 167 167 167 167 164 160 158 154 150 148 145 142 138 140 144 147 149 151 152 151 151 138 127 125 128 147 194 224 237 223 213 202 175 167 173 171 168 166 165 165 140 134 157 140 105 100 111 94 45 66 99 80 77 77 64 69 84 92 88 87 87 85
162 160 148 155 164 165 171 173 176 181 178 176 174 169 170 175 175 169 168 167 168 171 166 162 165 166 165 161 156 151 146 147 148 149 149 148 150 149 152 157 158 160 163 157 141 130 127 131 143 179 210 228 233 227 226 214 181 171 173 177 171 171 168 153 153 139 136 128 117 116 355 18 31 84 82 83 80 65 66 76 94 98 89 89 91
166 156 155 160 163 167 173 174 177 185 185 181 179 176 174 173 168 164 165 163 164 167 163 162 164 161 160 155 149 145 146 154 156 159 159 158 159 160 166 172 169 165 165 161 154 154 151 156 166 188 216 222 233 238 234 234 222 186 170 172 172 178 188 182 162 136 141 103 114 250 344 13 9 67 102 118 80 57 61 70 92 119 112 101 101
169 164 165 162 159 166 172 175 178 183 186 182 181 178 168 165 164 163 163 162 165 166 162 161 161 159 158 153 150 147 151 162 160 165 164 157 162 174 180 179 171 168 170 171 174 176 173 176 181 191 210 229 222 225 236 242 239 221 182 167 174 185 195 199 180 147 137 117 164 268 355 5 356 42 146 167 173 9 61 78 89 124 138 128 117
171 171 169 162 158 162 168 175 179 180 182 180 179 171 160 164 166 161 162 164 165 163 161 160 161 164 162 158 160 157 162 170 167 175 167 154 174 190 180 175 174 180 183 180 182 181 180 181 187 190 168 136 160 162 181 222 231 231 208 176 186 194 194 201 189 162 158 155 190 286 10 352 359 21 254 200 203 264 147 119 103 121 143 150 139
172 172 166 162 160 158 161 171 180 183 183 178 175 168 164 166 166 163 162 163 163 162 164 165 166 168 167 165 167 169 173 177 182 188 159 141 177 192 178 183 189 191 187 180 185 186 182 186 192 192 157 135 163 170 171 190 200 211 212 197 198 194 190 195 187 170 186 208 218 297 340 352 357 344 281 235 223 230 205 188 194 158 143 159 160
170 171 166 165 163 158 162 172 179 180 179 175 173 174 171 165 166 170 165 163 165 164 166 168 169 168 170 168 169 179 179 182 187 181 159 153 180 187 186 199 200 198 190 182 193 195 187 198 207 194 173 161 176 181 180 191 192 199 207 206 205 194 190 190 186 177 189 224 237 271 295 339 339 331 300 254 233 225 214 210 219 204 154 165 171
166 167 165 165 164 162 167 175 178 178 179 176 172 173 172 168 170 175 171 166 165 166 167 169 172 169 171 170 174 184 180 186 190 186 209 209 188 185 198 207 201 200 196 193 202 198 190 204 213 204 196 191 198 205 209 203 187 207 213 207 205 193 191 194 195 186 191 227 245 271 281 310 329 331 306 266 245 230 221 220 228 215 184 175 176
162 161 162 163 163 163 170 177 179 179 181 181 179 175 172 173 176 175 171 165 162 167 169 170 175 173 179 182 184 188 182 190 200 215 230 222 194 189 201 207 198 199 199 198 204 199 194 207 211 210 213 207 211 217 229 220 190 199 214 213 210 194 192 197 197 196 200 226 243 266 276 291 326 332 313 274 256 243 224 224 235 228 218 196 178
163 162 165 165 169 172 175 178 178 174 175 181 186 188 181 176 179 174 166 161 159 169 173 174 179 181 187 191 196 194 186 195 208 226 236 226 216 208 213 218 203 203 206 199 203 204 201 211 212 211 218 214 217 208 194 216 206 193 204 215 214 198 194 197 195 197 201 220 233 247 267 276 306 326 314 273 251 240 221 229 238 235 233 223 182
165 168 168 167 175 180 178 176 175 178 179 183 186 193 190 182 183 176 168 167 167 176 180 179 183 189 195 199 206 202 196 207 216 232 241 230 229 229 232 230 211 207 209 200 204 209 205 213 215 216 223 215 217 216 197 206 218 203 201 210 213 207 199 196 196 196 196 209 223 227 247 264 273 306 303 258 237 220 204 225 235 213 210 220 181
168 174 173 169 178 180 176 176 180 187 189 188 186 188 191 186 185 181 176 177 181 188 189 191 195 197 208 215 219 216 208 212 224 236 239 232 234 240 242 233 218 213 207 202 206 209 211 215 215 217 224 220 217 222 211 203 212 210 206 207 212 214 207 199 195 195 198 200 213 224 233 249 256 278 302 271 239 205 190 214 234 208 188 197 178
175 185 185 177 181 179 177 180 182 188 192 190 186 187 188 183 186 186 184 191 199 204 202 207 208 205 215 224 228 229 221 218 227 236 240 239 237 241 242 228 219 214 207 206 207 209 216 217 214 217 219 219 220 218 213 202 199 211 212 209 213 216 214 210 203 200 201 193 205 227 227 230 243 259 297 288 260 208 185 192 217 219 197 184 181
176 188 191 184 183 182 180 181 182 186 189 189 186 186 185 184 191 194 199 209 213 218 218 218 219 217 222 227 229 230 231 231 231 232 240 242 235 235 238 225 219 216 207 204 205 206 213 214 214 220 219 215 213 211 217 204 186 198 209 206 210 216 221 222 214 208 208 206 211 226 223 212 215 226 255 312 70 126 161 176 193 207 194 173 158
182 190 192 189 187 185 180 179 183 184 184 188 188 187 188 190 196 202 214 222 222 225 225 225 225 225 227 226 222 221 231 243 240 234 240 243 231 226 231 225 219 217 208 204 204 204 208 213 214 217 215 209 204 208 221 213 190 192 199 201 207 209 218 228 222 216 220 227 227 225 220 205 190 175 148 120 112 104 101 126 157 163 170 166 161
191 189 190 190 191 187 180 180 184 183 183 188 188 190 195 195 199 207 218 227 231 233 233 235 232 228 231 230 230 225 222 235 238 229 228 237 232 223 226 223 216 214 209 205 203 199 205 211 214 217 217 210 205 210 213 211 201 196 197 197 204 208 209 217 223 219 217 225 226 215 199 193 197 192 162 130 109 97 103 103 105 107 120 129 146
192 190 190 190 192 187 180 182 185 184 186 188 188 192 193 190 196 203 213 224 232 243 249 255 257 253 246 239 240 235 216 221 234 226 213 220 229 228 226 222 221 218 211 208 202 196 203 210 214 220 224 219 215 217 209 206 206 205 208 200 200 212 212 214 221 220 214 219 225 215 199 189 195 200 192 178 128 98 100 109 112 107 109 112 100
193 195 196 191 190 185 182 185 185 184 185 185 186 188 186 183 190 195 204 213 214 236 249 253 263 270 262 249 247 253 241 228 238 237 224 212 214 232 231 222 223 219 213 214 208 204 209 214 221 222 226 229 224 225 216 210 210 207 209 200 199 206 206 216 219 216 215 215 219 221 213 203 203 200 191 213 216 137 111 104 113 111 100 98 86
193 197 199 194 188 184 185 186 183 182 181 180 181 178 178 179 188 194 193 186 174 189 218 242 259 267 271 270 269 277 265 228 221 232 235 219 206 229 235 224 220 217 217 218 214 218 220 220 228 227 230 232 225 225 218 211 212 212 212 205 208 209 205 215 218 213 212 214 219 227 226 217 214 212 198 205 225 210 168 130 111 114 110 104 100
197 197 197 195 190 188 189 186 181 180 177 176 173 170 176 182 184 181 167 161 158 155 161 188 213 236 262 274 290 313 177 176 193 214 223 217 209 222 230 224 220 218 220 222 220 224 225 224 227 228 229 216 209 218 220 214 205 207 218 218 221 221 216 220 219 212 207 213 215 215 233 235 222 216 213 203 207 218 207 184 139 116 123 119 112
199 197 194 193 192 191 190 185 180 176 172 170 169 172 184 186 175 162 155 153 149 143 139 145 157 176 208 208 146 113 101 126 153 199 208 210 217 222 227 228 227 224 224 226 227 229 229 228 225 230 231 217 212 220 223 220 210 208 216 220 226 229 228 225 217 211 207 209 213 210 227 249 244 234 235 221 212 224 222 206 198 181 237 194 135
199 196 191 192 192 190 187 183 179 172 166 167 173 182 187 179 162 151 143 137 140 142 142 143 149 165 179 176 155 140 134 135 119 98 119 192 217 217 225 230 236 240 237 231 230 233 233 231 229 232 232 226 226 226 225 220 215 219 222 222 226 228 228 229 227 226 221 215 217 222 217 228 252 251 254 258 252 252 256 248 226 216 249 242 233
199 197 196 193 185 184 186 183 176 166 164 173 181 180 174 161 151 146 140 138 140 139 140 146 149 161 170 155 143 150 170 174 158 142 121 121 169 179 221 232 237 248 253 248 243 243 240 235 233 234 229 227 230 230 227 219 212 223 226 225 226 223 219 222 226 231 231 224 217 225 228 223 237 250 261 268 269 269 270 273 273 272 266 258 257
198 198 201 194 182 182 182 178 169 159 168 182 179 168 158 151 149 148 147 143 135 128 130 142 151 161 161 149 138 132 133 141 150 158 154 164 171 158 209 243 242 249 261 268 264 257 250 240 230 229 224 219 227 234 230 216 214 227 226 224 227 226 222 214 209 218 231 230 219 228 241 240 240 251 266 270 272 277 274 271 272 273 270 263 255
197 199 200 191 186 182 168 161 163 163 174 178 168 159 154 152 154 151 147 144 141 139 138 137 134 134 133 133 128 115 107 102 105 119 148 173 181 191 219 241 259 261 276 291 287 272 261 247 227 220 219 220 227 232 227 211 213 229 227 226 228 227 234 224 209 216 234 235 233 241 247 243 245 250 257 264 266 265 262 259 261 266 261 251 244
200 200 195 186 185 176 155 152 163 168 173 173 166 164 160 153 151 146 140 142 142 135 130 125 122 116 109 111 113 109 106 99 93 93 105 146 157 182 211 226 243 247 253 279 290 287 272 254 234 214 209 221 232 234 228 216 216 224 222 229 234 233 243 229 204 211 243 255 247 247 250 246 246 244 245 257 259 252 253 253 255 263 257 248 246
204 202 191 181 179 175 163 159 165 173 175 175 171 167 164 155 148 143 135 135 132 124 125 125 119 113 106 106 106 106 110 107 97 93 87 92 111 140 167 185 216 226 228 241 265 277 274 260 249 227 214 213 228 239 234 225 222 222 221 232 247 252 261 186 173 207 241 243 234 238 248 249 248 247 242 251 256 251 256 257 258 262 257 255 258
207 203 190 178 177 177 171 164 172 183 180 177 176 171 167 155 143 141 134 132 131 129 136 136 128 122 113 109 108 107 110 112 106 102 99 96 100 106 114 126 152 179 199 210 229 246 255 257 252 246 234 220 218 229 237 236 230 225 227 234 242 257 282 122 148 189 205 202 218 222 227 234 246 253 243 257 266 268 268 264 256 251 250 254 258
202 201 189 185 185 182 179 179 185 191 181 169 169 170 169 154 136 132 132 135 139 143 143 135 129 126 114 106 104 104 110 114 112 109 106 106 105 100 100 105 109 122 146 164 187 216 227 242 241 235 244 237 224 220 232 237 229 228 228 232 242 249 262 267 162 165 162 156 184 215 221 228 238 239 240 263 282 291 297 326 259 226 213 318 284
200 201 193 194 196 188 187 193 195 193 185 173 168 167 166 157 141 134 139 144 147 142 132 124 122 118 112 109 103 103 114 118 116 113 103 97 104 105 108 112 103 95 101 126 151 163 179 211 220 206 212 223 222 220 230 227 213 226 226 224 241 249 252 253 210 185 165 135 132 134 173 210 232 239 248 259 272 283 280 17 21 51 69 12 324
203 203 199 203 206 198 195 202 201 199 194 183 174 168 165 161 152 146 148 148 143 132 122 119 117 113 111 111 112 112 117 119 117 114 103 97 106 107 108 121 115 88 71 80 137 136 123 108 101 134 146 200 220 205 211 217 198 215 236 226 226 239 244 238 219 208 199 166 145 132 123 113 100 87 13 307 2 351 314 45 355 359 19 327 311
198 198 199 205 208 201 203 209 207 206 206 199 184 171 164 163 158 153 150 143 135 126 119 116 114 113 110 109 114 117 116 115 113 111 106 107 116 117 115 120 122 100 69 67 117 126 118 104 80 82 83 82 211 186 188 198 189 200 225 217 205 212 220 218 205 198 207 201 152 137 133 113 98 91 84 78 78 82 75 62 30 14 7 319 313
181 184 188 188 193 196 206 217 209 204 205 204 195 177 167 165 159 152 147 137 128 120 114 113 114 117 115 112 116 121 121 118 111 108 106 105 110 112 110 106 100 97 86 83 97 100 102 101 82 77 78 75 64 63 107 120 128 172 184 185 193 187 184 188 187 188 198 194 143 130 128 118 106 98 95 90 84 83 78 69 55 35 26 20 24